Terug naar catalogus

CZ-3B R/B

ActiefHEO
NORAD 59916·ROCKET BODY·🇨🇳 China

Gelanceerd May 30, 2024 vanaf Xichang Satellite Launch Center

Loading…

Volgende Passages (komende 24 uur)

TLE

VersSource: Space-Track

Epoch: Sep 14, 2026, 19:05 UTC

1 59916U 24104B   26257.79577019  .00149323  37317-6  25714-2 0  9998
2 59916  26.7092   7.9999 6471182 162.2313 239.9539  3.43337974 24401

Volg CZ-3B R/B in realtime met AllMySat

Download on the App Store